| time (UTC) | temp F | wind direction | speed MPH | gust MPH | rain 1hr in | rain 24hr in | rain mn in | humidity % | barometer mb |
| 20260509101337 | 44 | 134 | 0.0 | 1.0 | 0.00 | 0.00 | 0.00 | 99 | 1009.0 |
| 20260509100836 | 44 | 100 | 2.0 | 2.0 | 0.00 | 0.00 | 0.00 | 99 | 1009.0 |
| 20260509100332 | 44 | 116 | 1.0 | 1.0 | 0.00 | 0.00 | 0.00 | 99 | 1009.0 |
| 20260509095829 | 44 | 90 | 2.0 | 2.0 | 0.00 | 0.00 | 0.00 | 99 | 1009.1 |
| 20260509095326 | 44 | 101 | 1.0 | 2.0 | 0.00 | 0.00 | 0.00 | 99 | 1009.1 |
| 20260509094823 | 44 | 111 | 1.0 | 2.0 | 0.00 | 0.00 | 0.00 | 99 | 1009.1 |
| 20260509094320 | 44 | 110 | 2.0 | 2.0 | 0.00 | 0.00 | 0.00 | 99 | 1009.4 |
| 20260509093818 | 44 | 101 | 2.0 | 2.0 | 0.00 | 0.00 | 0.00 | 99 | 1009.4 |
| 20260509093315 | 44 | 115 | 1.0 | 1.0 | 0.00 | 0.00 | 0.00 | 99 | 1009.5 |
| 20260509092813 | 44 | 126 | 0.0 | 0.0 | 0.00 | 0.00 | 0.00 | 99 | 1009.3 |
| 20260509092311 | 44 | 141 | 0.0 | 0.0 | 0.00 | 0.00 | 0.00 | 99 | 1009.4 |
| 20260509091809 | 44 | 98 | 0.0 | 0.0 | 0.00 | 0.00 | 0.00 | 99 | 1009.4 |
| 20260509091305 | 44 | 128 | 0.0 | 0.0 | 0.00 | 0.00 | 0.00 | 99 | 1009.4 |
| 20260509090803 | 44 | 107 | 2.0 | 2.0 | 0.00 | 0.00 | 0.00 | 99 | 1009.4 |
| 20260509090259 | 44 | 146 | 0.0 | 0.0 | 0.00 | 0.00 | 0.00 | 99 | 1009.3 |
| 20260509085757 | 44 | 117 | 1.0 | 2.0 | 0.00 | 0.00 | 0.00 | 99 | 1009.3 |
| 20260509085254 | 44 | 91 | 0.0 | 0.0 | 0.00 | 0.00 | 0.00 | 99 | 1009.4 |
| 20260509084750 | 44 | 166 | 0.0 | 0.0 | 0.00 | 0.00 | 0.00 | 99 | 1009.3 |
| 20260509084247 | 44 | 95 | 0.0 | 0.0 | 0.00 | 0.00 | 0.00 | 99 | 1009.3 |
| 20260509083745 | 43 | 133 | 0.0 | 0.0 | 0.00 | 0.00 | 0.00 | 99 | 1009.5 |
| 20260509083242 | 43 | 93 | 0.0 | 0.0 | 0.00 | 0.00 | 0.00 | 99 | 1009.1 |
| 20260509082738 | 43 | 93 | 0.0 | 0.0 | 0.00 | 0.00 | 0.00 | 99 | 1009.3 |
| 20260509082235 | 43 | 94 | 0.0 | 0.0 | 0.00 | 0.00 | 0.00 | 99 | 1009.1 |
| 20260509081732 | 43 | 100 | 0.0 | 0.0 | 0.00 | 0.00 | 0.00 | 99 | 1009.3 |
| 20260509081230 | 43 | 88 | 0.0 | 0.0 | 0.00 | 0.00 | 0.00 | 99 | 1009.1 |
| 20260509080728 | 43 | 99 | 0.0 | 0.0 | 0.00 | 0.00 | 0.00 | 99 | 1009.3 |
| 20260509080225 | 43 | 102 | 0.0 | 0.0 | 0.00 | 0.00 | 0.00 | 99 | 1009.5 |
| 20260509075723 | 43 | 99 | 0.0 | 0.0 | 0.00 | 0.00 | 0.00 | 99 | 1009.5 |
| 20260509075220 | 43 | 106 | 0.0 | 0.0 | 0.00 | 0.00 | 0.00 | 99 | 1009.4 |
| 20260509074717 | 43 | 112 | 0.0 | 0.0 | 0.00 | 0.00 | 0.00 | 99 | 1009.4 |
| 20260509074215 | 43 | 89 | 0.0 | 0.0 | 0.00 | 0.00 | 0.00 | 99 | 1009.5 |
| 20260509073711 | 43 | 109 | 1.0 | 1.0 | 0.00 | 0.00 | 0.00 | 99 | 1009.7 |
| 20260509073207 | 43 | 126 | 0.0 | 0.0 | 0.00 | 0.00 | 0.00 | 99 | 1009.7 |
| 20260509072704 | 43 | 129 | 0.0 | 0.0 | 0.00 | 0.00 | 0.00 | 99 | 1009.5 |
| 20260509072201 | 43 | 145 | 0.0 | 0.0 | 0.00 | 0.00 | 0.00 | 99 | 1009.6 |
| 20260509071657 | 43 | 106 | 1.0 | 1.0 | 0.00 | 0.00 | 0.00 | 99 | 1009.6 |
| 20260509071155 | 43 | 120 | 1.0 | 2.0 | 0.00 | 0.00 | 0.00 | 99 | 1009.7 |
| 20260509070651 | 43 | 99 | 0.0 | 1.0 | 0.00 | 0.00 | 0.00 | 99 | 1009.8 |
| 20260509070148 | 43 | 97 | 2.0 | 2.0 | 0.00 | 0.00 | 0.00 | 99 | 1009.8 |
| 20260509065644 | 43 | 146 | 2.0 | 2.0 | 0.00 | 0.00 | 0.00 | 99 | 1009.9 |
| 20260509065140 | 43 | 113 | 0.0 | 0.0 | 0.00 | 0.00 | 0.00 | 99 | 1009.8 |
| 20260509064637 | 43 | 100 | 1.0 | 2.0 | 0.00 | 0.00 | 0.00 | 99 | 1009.9 |
| 20260509064135 | 43 | 97 | 1.0 | 2.0 | 0.00 | 0.00 | 0.00 | 99 | 1009.9 |
| 20260509063632 | 43 | 99 | 2.0 | 2.0 | 0.00 | 0.00 | 0.00 | 99 | 1010.1 |
| 20260509063128 | 43 | 104 | 1.0 | 1.0 | 0.00 | 0.00 | 0.00 | 99 | 1010.0 |
| 20260509062626 | 43 | 109 | 1.0 | 1.0 | 0.00 | 0.00 | 0.00 | 99 | 1010.2 |
| 20260509062122 | 43 | 110 | 1.0 | 1.0 | 0.00 | 0.00 | 0.00 | 99 | 1010.2 |
| 20260509061619 | 43 | 121 | 0.0 | 0.0 | 0.00 | 0.00 | 0.00 | 99 | 1010.3 |
| 20260509061117 | 43 | 101 | 1.0 | 1.0 | 0.00 | 0.00 | 0.00 | 99 | 1010.2 |
| 20260509060614 | 43 | 79 | 1.0 | 1.0 | 0.00 | 0.00 | 0.00 | 99 | 1010.1 |
| 20260509060110 | 43 | 86 | 0.0 | 0.0 | 0.00 | 0.00 | 0.00 | 99 | 1010.3 |
| 20260509055605 | 43 | 128 | 0.0 | 0.0 | 0.00 | 0.00 | 0.00 | 99 | 1010.4 |
| 20260509055101 | 43 | 103 | 0.0 | 0.0 | 0.00 | 0.00 | 0.00 | 99 | 1010.4 |
| 20260509054558 | 43 | 165 | 0.0 | 0.0 | 0.00 | 0.00 | 0.00 | 99 | 1010.8 |
| 20260509054056 | 43 | 149 | 0.0 | 0.0 | 0.00 | 0.00 | 0.00 | 99 | 1010.5 |
| 20260509053555 | 43 | 140 | 0.0 | 0.0 | 0.00 | 0.00 | 0.00 | 99 | 1010.8 |
| 20260509053051 | 43 | 180 | 0.0 | 0.0 | 0.00 | 0.00 | 0.00 | 99 | 1011.0 |
| 20260509052549 | 43 | 167 | 0.0 | 0.0 | 0.00 | 0.00 | 0.00 | 99 | 1011.0 |
| 20260509052047 | 43 | 157 | 0.0 | 0.0 | 0.00 | 0.00 | 0.00 | 99 | 1011.0 |
| 20260509051545 | 43 | 166 | 0.0 | 0.0 | 0.00 | 0.00 | 0.00 | 99 | 1011.0 |
| 20260509051041 | 44 | 159 | 0.0 | 0.0 | 0.00 | 0.00 | 0.00 | 99 | 1011.2 |
| 20260509050538 | 44 | 170 | 0.0 | 0.0 | 0.00 | 0.00 | 0.00 | 99 | 1011.1 |
| 20260509050034 | 44 | 168 | 0.0 | 0.0 | 0.00 | 0.00 | 0.00 | 99 | 1011.2 |
| 20260509045532 | 44 | 154 | 0.0 | 0.0 | 0.00 | 0.00 | 0.00 | 99 | 1011.4 |
| 20260509045029 | 44 | 146 | 0.0 | 0.0 | 0.00 | 0.00 | 0.00 | 99 | 1011.2 |
| 20260509044526 | 44 | 166 | 0.0 | 0.0 | 0.00 | 0.00 | 0.00 | 99 | 1011.3 |
| 20260509044024 | 44 | 165 | 0.0 | 0.0 | 0.00 | 0.00 | 0.00 | 99 | 1011.4 |
| 20260509043520 | 44 | 166 | 0.0 | 0.0 | 0.00 | 0.00 | 0.00 | 99 | 1011.6 |
| 20260509043010 | 44 | 170 | 0.0 | 0.0 | 0.00 | 0.00 | 0.00 | 99 | 1011.6 |
| 20260509042506 | 43 | 164 | 0.0 | 0.0 | 0.00 | 0.00 | 0.00 | 99 | 1011.7 |
| 20260509042002 | 43 | 186 | 0.0 | 0.0 | 0.00 | 0.00 | 0.00 | 99 | 1011.5 |
| 20260509041459 | 43 | 186 | 0.0 | 0.0 | 0.00 | 0.00 | 0.00 | 99 | 1011.6 |
| 20260509040957 | 43 | 179 | 0.0 | 0.0 | 0.00 | 0.00 | 0.00 | 99 | 1011.7 |
| 20260509040455 | 43 | 164 | 0.0 | 0.0 | 0.00 | 0.00 | 0.00 | 99 | 1011.6 |
| 20260509035951 | 43 | 164 | 0.0 | 0.0 | 0.00 | 0.00 | 0.00 | 99 | 1011.8 |
| 20260509035448 | 43 | 110 | 1.0 | 1.0 | 0.00 | 0.00 | 0.00 | 99 | 1011.7 |
| 20260509034945 | 43 | 181 | 0.0 | 0.0 | 0.00 | 0.00 | 0.00 | 99 | 1011.8 |
| 20260509034443 | 43 | 180 | 0.0 | 0.0 | 0.00 | 0.00 | 0.00 | 99 | 1011.9 |
| 20260509033939 | 43 | 181 | 0.0 | 0.0 | 0.00 | 0.00 | 0.00 | 99 | 1011.8 |
| 20260509033437 | 44 | 173 | 0.0 | 0.0 | 0.00 | 0.00 | 0.00 | 99 | 1011.8 |
| 20260509032933 | 44 | 167 | 0.0 | 0.0 | 0.00 | 0.00 | 0.00 | 99 | 1011.7 |
| 20260509032431 | 44 | 201 | 0.0 | 0.0 | 0.00 | 0.00 | 0.00 | 98 | 1011.7 |
| 20260509031929 | 44 | 207 | 0.0 | 0.0 | 0.00 | 0.00 | 0.00 | 98 | 1011.6 |
| 20260509031426 | 44 | 222 | 0.0 | 0.0 | 0.00 | 0.00 | 0.00 | 97 | 1011.9 |
| 20260509030923 | 44 | 232 | 0.0 | 0.0 | 0.00 | 0.00 | 0.00 | 97 | 1011.6 |
| 20260509030421 | 44 | 225 | 0.0 | 0.0 | 0.00 | 0.00 | 0.00 | 97 | 1011.9 |
| 20260509025918 | 44 | 276 | 0.0 | 1.0 | 0.00 | 0.00 | 0.00 | 97 | 1011.8 |
| 20260509025413 | 44 | 314 | 1.0 | 1.0 | 0.00 | 0.00 | 0.00 | 97 | 1011.8 |
| 20260509024908 | 44 | 228 | 0.0 | 1.0 | 0.00 | 0.00 | 0.00 | 96 | 1012.0 |
| 20260509024405 | 44 | 287 | 1.0 | 1.0 | 0.00 | 0.00 | 0.00 | 96 | 1012.1 |
| 20260509023902 | 44 | 254 | 0.0 | 0.0 | 0.00 | 0.00 | 0.00 | 96 | 1012.0 |
| 20260509023359 | 44 | 291 | 0.0 | 0.0 | 0.00 | 0.00 | 0.00 | 96 | 1011.9 |
| 20260509022855 | 44 | 245 | 0.0 | 0.0 | 0.00 | 0.00 | 0.00 | 95 | 1011.9 |
| 20260509022353 | 44 | 243 | 0.0 | 0.0 | 0.00 | 0.00 | 0.00 | 95 | 1011.7 |
| 20260509021850 | 44 | 291 | 1.0 | 1.0 | 0.00 | 0.00 | 0.00 | 95 | 1011.8 |
| 20260509021347 | 44 | 263 | 1.0 | 1.0 | 0.00 | 0.00 | 0.00 | 95 | 1011.7 |
| 20260509020845 | 44 | 285 | 1.0 | 2.0 | 0.00 | 0.00 | 0.00 | 94 | 1011.6 |
| 20260509020343 | 44 | 281 | 1.0 | 1.0 | 0.00 | 0.00 | 0.00 | 94 | 1011.7 |
| 20260509015840 | 44 | 262 | 1.0 | 1.0 | 0.00 | 0.00 | 0.00 | 94 | 1011.6 |
| 20260509015338 | 44 | 208 | 2.0 | 2.0 | 0.00 | 0.00 | 0.00 | 95 | 1011.7 |
| 20260509014834 | 44 | 262 | 2.0 | 2.0 | 0.00 | 0.00 | 0.00 | 95 | 1011.5 |
| 20260509014326 | 44 | 240 | 2.0 | 2.0 | 0.00 | 0.00 | 0.00 | 95 | 1011.6 |
| 20260509013822 | 44 | 225 | 1.0 | 2.0 | 0.00 | 0.00 | 0.00 | 95 | 1011.7 |
| 20260509013319 | 45 | 302 | 3.0 | 3.0 | 0.00 | 0.00 | 0.00 | 95 | 1011.8 |
| 20260509012814 | 45 | 237 | 1.0 | 2.0 | 0.00 | 0.00 | 0.00 | 95 | 1011.5 |
| 20260509012311 | 45 | 284 | 1.0 | 1.0 | 0.00 | 0.00 | 0.00 | 94 | 1011.7 |
| 20260509011809 | 45 | 320 | 2.0 | 2.0 | 0.00 | 0.00 | 0.00 | 94 | 1011.5 |
| 20260509011306 | 45 | 290 | 2.0 | 2.0 | 0.00 | 0.00 | 0.00 | 94 | 1011.3 |
| 20260509010803 | 45 | 291 | 2.0 | 2.0 | 0.00 | 0.00 | 0.00 | 94 | 1011.4 |
| 20260509010300 | 45 | 250 | 1.0 | 1.0 | 0.00 | 0.00 | 0.00 | 94 | 1011.3 |
| 20260509005758 | 45 | 277 | 2.0 | 3.0 | 0.00 | 0.00 | 0.00 | 94 | 1011.0 |
| 20260509005256 | 45 | 318 | 1.0 | 1.0 | 0.00 | 0.00 | 0.00 | 94 | 1011.0 |
| 20260509004749 | 45 | 311 | 2.0 | 3.0 | 0.00 | 0.00 | 0.00 | 94 | 1011.0 |
| 20260509004247 | 45 | 314 | 2.0 | 3.0 | 0.00 | 0.00 | 0.00 | 93 | 1011.1 |
| 20260509003745 | 45 | 297 | 3.0 | 3.0 | 0.00 | 0.00 | 0.00 | 93 | 1011.0 |
| 20260509003242 | 45 | 273 | 1.0 | 2.0 | 0.00 | 0.00 | 0.00 | 93 | 1010.9 |
| 20260509002739 | 45 | 299 | 2.0 | 2.0 | 0.00 | 0.00 | 0.00 | 92 | 1011.0 |
| 20260509002231 | 46 | 208 | 2.0 | 2.0 | 0.00 | 0.00 | 0.00 | 91 | 1011.0 |
| 20260509001729 | 45 | 268 | 4.0 | 4.0 | 0.00 | 0.00 | 0.00 | 91 | 1010.8 |
| 20260509001224 | 46 | 214 | 1.0 | 2.0 | 0.00 | 0.00 | 0.00 | 92 | 1010.8 |
| 20260509000723 | 46 | 236 | 2.0 | 3.0 | 0.00 | 0.00 | 0.00 | 92 | 1010.8 |
| 20260509000220 | 46 | 196 | 1.0 | 2.0 | 0.00 | 0.00 | 0.00 | 92 | 1011.0 |
| 20260508235717 | 46 | 227 | 3.0 | 3.0 | 0.00 | 0.00 | 0.00 | 90 | 1011.1 |
| 20260508235213 | 46 | 178 | 2.0 | 2.0 | 0.00 | 0.00 | 0.00 | 88 | 1011.1 |
| 20260508234710 | 47 | 216 | 2.0 | 3.0 | 0.00 | 0.00 | 0.00 | 87 | 1010.9 |
| 20260508234206 | 47 | 145 | 3.0 | 4.0 | 0.00 | 0.00 | 0.00 | 85 | 1010.9 |
| 20260508233706 | 47 | 241 | 3.0 | 3.0 | 0.00 | 0.00 | 0.00 | 85 | 1011.0 |
| 20260508233203 | 48 | 197 | 2.0 | 3.0 | 0.00 | 0.00 | 0.00 | 82 | 1011.0 |
| 20260508232700 | 47 | 222 | 3.0 | 3.0 | 0.00 | 0.00 | 0.00 | 84 | 1011.0 |
| 20260508232156 | 48 | 241 | 2.0 | 2.0 | 0.00 | 0.00 | 0.00 | 86 | 1010.8 |
| 20260508231655 | 48 | 183 | 2.0 | 4.0 | 0.00 | 0.00 | 0.00 | 82 | 1010.9 |
| 20260508231151 | 48 | 185 | 2.0 | 2.0 | 0.00 | 0.00 | 0.00 | 85 | 1010.9 |
| 20260508230648 | 48 | 169 | 3.0 | 4.0 | 0.00 | 0.00 | 0.00 | 83 | 1011.1 |
| 20260508230144 | 48 | 234 | 2.0 | 3.0 | 0.00 | 0.00 | 0.00 | 84 | 1010.8 |
| 20260508225642 | 48 | 238 | 2.0 | 2.0 | 0.00 | 0.00 | 0.00 | 85 | 1010.9 |
| 20260508225138 | 48 | 205 | 2.0 | 3.0 | 0.00 | 0.00 | 0.00 | 82 | 1010.6 |
| 20260508224636 | 48 | 229 | 2.0 | 2.0 | 0.00 | 0.00 | 0.00 | 84 | 1010.8 |
| 20260508224134 | 48 | 124 | 2.0 | 2.0 | 0.00 | 0.00 | 0.00 | 84 | 1010.8 |
| 20260508223631 | 49 | 297 | 3.0 | 3.0 | 0.00 | 0.00 | 0.00 | 84 | 1010.9 |
| 20260508223128 | 49 | 253 | 2.0 | 2.0 | 0.00 | 0.00 | 0.00 | 85 | 1010.8 |
| 20260508222625 | 49 | 207 | 1.0 | 1.0 | 0.00 | 0.00 | 0.00 | 86 | 1010.6 |
| 20260508222122 | 49 | 280 | 2.0 | 3.0 | 0.00 | 0.00 | 0.00 | 85 | 1010.9 |
| 20260508221618 | 49 | 229 | 2.0 | 2.0 | 0.00 | 0.00 | 0.00 | 86 | 1010.6 |
| 20260508221114 | 49 | 1 | 3.0 | 3.0 | 0.00 | 0.00 | 0.00 | 85 | 1010.5 |
| 20260508220611 | 48 | 220 | 2.0 | 2.0 | 0.00 | 0.00 | 0.00 | 86 | 1010.8 |
| 20260508220108 | 48 | 222 | 2.0 | 2.0 | 0.00 | 0.00 | 0.00 | 85 | 1010.6 |
| 20260508215604 | 49 | 201 | 2.0 | 2.0 | 0.00 | 0.00 | 0.00 | 86 | 1010.8 |
| 20260508215101 | 49 | 201 | 0.0 | 1.0 | 0.00 | 0.00 | 0.00 | 88 | 1010.6 |
| 20260508214559 | 49 | 224 | 1.0 | 2.0 | 0.00 | 0.00 | 0.00 | 88 | 1010.5 |
| 20260508214055 | 49 | 168 | 2.0 | 3.0 | 0.00 | 0.00 | 0.00 | 88 | 1010.8 |
| 20260508213552 | 49 | 158 | 2.0 | 2.0 | 0.00 | 0.00 | 0.00 | 90 | 1010.3 |
| 20260508213048 | 48 | 217 | 1.0 | 1.0 | 0.00 | 0.00 | 0.00 | 90 | 1010.4 |
| 20260508212545 | 48 | 251 | 2.0 | 3.0 | 0.00 | 0.00 | 0.00 | 89 | 1010.6 |
| 20260508212041 | 49 | 222 | 1.0 | 2.0 | 0.00 | 0.00 | 0.00 | 91 | 1010.6 |
| 20260508211537 | 48 | 196 | 1.0 | 2.0 | 0.00 | 0.00 | 0.00 | 90 | 1010.8 |
| 20260508211033 | 48 | 198 | 1.0 | 2.0 | 0.00 | 0.00 | 0.00 | 91 | 1010.8 |
| 20260508210530 | 48 | 204 | 1.0 | 2.0 | 0.00 | 0.00 | 0.00 | 93 | 1011.1 |
| 20260508210028 | 47 | 223 | 1.0 | 1.0 | 0.00 | 0.00 | 0.00 | 93 | 1010.8 |
| 20260508205524 | 47 | 241 | 1.0 | 1.0 | 0.00 | 0.00 | 0.00 | 95 | 1010.5 |
| 20260508205020 | 46 | 216 | 0.0 | 0.0 | 0.00 | 0.00 | 0.00 | 94 | 1011.0 |
| 20260508204518 | 46 | 250 | 2.0 | 2.0 | 0.00 | 0.00 | 0.00 | 95 | 1010.9 |
| 20260508204013 | 46 | 232 | 2.0 | 3.0 | 0.00 | 0.00 | 0.00 | 94 | 1011.0 |
| 20260508203509 | 46 | 220 | 1.0 | 1.0 | 0.00 | 0.00 | 0.00 | 94 | 1011.0 |
| 20260508203005 | 46 | 224 | 1.0 | 1.0 | 0.00 | 0.00 | 0.00 | 95 | 1011.0 |
| 20260508202502 | 46 | 217 | 1.0 | 1.0 | 0.00 | 0.00 | 0.00 | 93 | 1010.9 |
| 20260508201959 | 46 | 186 | 1.0 | 2.0 | 0.00 | 0.00 | 0.00 | 93 | 1011.3 |
| 20260508201456 | 46 | 265 | 1.0 | 2.0 | 0.00 | 0.00 | 0.00 | 94 | 1011.2 |
| 20260508200952 | 46 | 253 | 1.0 | 2.0 | 0.00 | 0.00 | 0.00 | 93 | 1011.1 |
| 20260508200450 | 47 | 230 | 1.0 | 2.0 | 0.00 | 0.00 | 0.00 | 92 | 1011.3 |
| 20260508195944 | 48 | 244 | 2.0 | 2.0 | 0.00 | 0.00 | 0.00 | 89 | 1011.2 |
| 20260508195442 | 49 | 308 | 3.0 | 3.0 | 0.00 | 0.00 | 0.00 | 85 | 1011.3 |
| 20260508194938 | 51 | 184 | 1.0 | 2.0 | 0.00 | 0.00 | 0.00 | 74 | 1011.2 |
| 20260508194436 | 52 | 215 | 2.0 | 3.0 | 0.00 | 0.00 | 0.00 | 70 | 1010.9 |
| 20260508193932 | 53 | 181 | 0.0 | 0.0 | 0.00 | 0.00 | 0.00 | 71 | 1010.6 |
| 20260508193430 | 53 | 185 | 0.0 | 1.0 | 0.00 | 0.00 | 0.00 | 74 | 1010.8 |
| 20260508192925 | 53 | 195 | 0.0 | 1.0 | 0.00 | 0.00 | 0.00 | 75 | 1010.9 |
| 20260508192423 | 51 | 215 | 1.0 | 1.0 | 0.00 | 0.00 | 0.00 | 71 | 1010.9 |
| 20260508191920 | 51 | 291 | 1.0 | 2.0 | 0.00 | 0.00 | 0.00 | 81 | 1011.0 |
| 20260508191417 | 51 | 201 | 0.0 | 0.0 | 0.00 | 0.00 | 0.00 | 73 | 1011.1 |
| 20260508190914 | 52 | 244 | 1.0 | 2.0 | 0.00 | 0.00 | 0.00 | 71 | 1011.1 |
| 20260508190411 | 53 | 212 | 2.0 | 2.0 | 0.00 | 0.00 | 0.00 | 65 | 1011.0 |
| 20260508185907 | 54 | 166 | 1.0 | 2.0 | 0.00 | 0.00 | 0.00 | 65 | 1011.0 |
| 20260508185405 | 55 | 211 | 0.0 | 1.0 | 0.00 | 0.00 | 0.00 | 65 | 1010.9 |
| 20260508184902 | 55 | 193 | 0.0 | 1.0 | 0.00 | 0.00 | 0.00 | 65 | 1011.0 |
| 20260508184359 | 55 | 277 | 2.0 | 3.0 | 0.00 | 0.00 | 0.00 | 72 | 1011.1 |
| 20260508183856 | 55 | 217 | 3.0 | 3.0 | 0.00 | 0.00 | 0.00 | 71 | 1011.3 |
| 20260508183352 | 54 | 157 | 4.0 | 7.0 | 0.00 | 0.00 | 0.00 | 70 | 1011.3 |
| 20260508182847 | 53 | 185 | 2.0 | 2.0 | 0.00 | 0.00 | 0.00 | 76 | 1011.2 |
| 20260508182344 | 52 | 294 | 3.0 | 3.0 | 0.00 | 0.00 | 0.00 | 77 | 1011.3 |
| 20260508181840 | 51 | 282 | 3.0 | 3.0 | 0.00 | 0.00 | 0.00 | 78 | 1011.5 |
| 20260508181337 | 49 | 235 | 2.0 | 2.0 | 0.00 | 0.00 | 0.00 | 84 | 1011.1 |
| 20260508180834 | 48 | 301 | 2.0 | 3.0 | 0.00 | 0.00 | 0.00 | 84 | 1011.3 |
| 20260508180331 | 47 | 29 | 5.0 | 6.0 | 0.00 | 0.00 | 0.00 | 88 | 1011.4 |
| 20260508175827 | 45 | 242 | 2.0 | 3.0 | 0.00 | 0.00 | 0.00 | 91 | 1011.4 |
| 20260508175324 | 45 | 353 | 2.0 | 2.0 | 0.00 | 0.00 | 0.00 | 92 | 1011.5 |
| 20260508174822 | 45 | 303 | 4.0 | 4.0 | 0.00 | 0.00 | 0.00 | 89 | 1011.8 |
| 20260508174319 | 46 | 212 | 1.0 | 2.0 | 0.00 | 0.00 | 0.00 | 90 | 1011.8 |
| 20260508173815 | 46 | 281 | 3.0 | 3.0 | 0.00 | 0.00 | 0.00 | 92 | 1012.0 |
| 20260508173312 | 45 | 328 | 3.0 | 3.0 | 0.00 | 0.00 | 0.00 | 92 | 1011.8 |
| 20260508172808 | 45 | 121 | 4.0 | 6.0 | 0.00 | 0.00 | 0.00 | 87 | 1012.5 |
| 20260508172307 | 47 | 274 | 5.0 | 6.0 | 0.00 | 0.00 | 0.00 | 80 | 1012.1 |
| 20260508171801 | 48 | 282 | 5.0 | 6.0 | 0.00 | 0.00 | 0.00 | 77 | 1012.3 |
| 20260508171258 | 50 | 300 | 4.0 | 4.0 | 0.00 | 0.00 | 0.00 | 74 | 1011.8 |
| 20260508170755 | 50 | 291 | 2.0 | 3.0 | 0.00 | 0.00 | 0.00 | 76 | 1011.9 |
| 20260508170253 | 48 | 238 | 3.0 | 3.0 | 0.00 | 0.00 | 0.00 | 78 | 1011.8 |
| 20260508165744 | 49 | 107 | 2.0 | 2.0 | 0.00 | 0.00 | 0.00 | 74 | 1011.9 |
| 20260508165242 | 50 | 207 | 1.0 | 1.0 | 0.00 | 0.00 | 0.00 | 69 | 1011.9 |
| 20260508164737 | 51 | 227 | 3.0 | 3.0 | 0.00 | 0.00 | 0.00 | 67 | 1011.9 |
| 20260508164233 | 52 | 168 | 2.0 | 3.0 | 0.00 | 0.00 | 0.00 | 65 | 1011.9 |
| 20260508163732 | 51 | 222 | 1.0 | 2.0 | 0.00 | 0.00 | 0.00 | 67 | 1011.8 |
| 20260508163229 | 50 | 207 | 2.0 | 2.0 | 0.00 | 0.00 | 0.00 | 66 | 1011.9 |
| 20260508162725 | 50 | 29 | 4.0 | 4.0 | 0.00 | 0.00 | 0.00 | 69 | 1012.3 |
| 20260508162222 | 49 | 222 | 2.0 | 4.0 | 0.00 | 0.00 | 0.00 | 68 | 1012.3 |
| 20260508161719 | 50 | 224 | 2.0 | 3.0 | 0.00 | 0.00 | 0.00 | 68 | 1012.3 |
| 20260508161216 | 51 | 311 | 3.0 | 3.0 | 0.00 | 0.00 | 0.00 | 65 | 1012.4 |
| 20260508160714 | 50 | 240 | 1.0 | 1.0 | 0.00 | 0.00 | 0.00 | 66 | 1012.3 |
| 20260508160212 | 50 | 250 | 2.0 | 3.0 | 0.00 | 0.00 | 0.00 | 65 | 1011.8 |
| 20260508155708 | 50 | 202 | 3.0 | 6.0 | 0.00 | 0.00 | 0.00 | 65 | 1011.8 |
| 20260508155205 | 52 | 214 | 3.0 | 4.0 | 0.00 | 0.00 | 0.00 | 65 | 1011.9 |
| 20260508154702 | 51 | 211 | 2.0 | 4.0 | 0.00 | 0.00 | 0.00 | 63 | 1011.9 |
| 20260508154159 | 50 | 266 | 4.0 | 7.0 | 0.00 | 0.00 | 0.00 | 67 | 1012.0 |
| 20260508153656 | 49 | 218 | 1.0 | 1.0 | 0.00 | 0.00 | 0.00 | 69 | 1012.1 |
| 20260508153153 | 48 | 237 | 3.0 | 3.0 | 0.00 | 0.00 | 0.00 | 70 | 1012.1 |
| 20260508152649 | 48 | 278 | 3.0 | 3.0 | 0.00 | 0.00 | 0.00 | 68 | 1012.1 |
| 20260508152145 | 49 | 228 | 1.0 | 1.0 | 0.00 | 0.00 | 0.00 | 69 | 1012.0 |
| 20260508151642 | 50 | 288 | 3.0 | 3.0 | 0.00 | 0.00 | 0.00 | 68 | 1011.9 |
| 20260508151138 | 49 | 323 | 3.0 | 3.0 | 0.00 | 0.00 | 0.00 | 70 | 1011.9 |
| 20260508150637 | 48 | 263 | 3.0 | 4.0 | 0.00 | 0.00 | 0.00 | 69 | 1012.0 |
| 20260508150133 | 49 | 204 | 3.0 | 4.0 | 0.00 | 0.00 | 0.00 | 69 | 1012.1 |
| 20260508145629 | 48 | 244 | 3.0 | 4.0 | 0.00 | 0.00 | 0.00 | 71 | 1012.1 |
| 20260508145125 | 48 | 302 | 2.0 | 2.0 | 0.00 | 0.00 | 0.00 | 71 | 1012.3 |
| 20260508144623 | 48 | 198 | 5.0 | 7.0 | 0.00 | 0.00 | 0.00 | 69 | 1012.0 |
| 20260508144120 | 49 | 301 | 6.0 | 8.0 | 0.00 | 0.00 | 0.00 | 70 | 1012.0 |
| 20260508143617 | 49 | 239 | 3.0 | 3.0 | 0.00 | 0.00 | 0.00 | 69 | 1011.8 |
| 20260508143114 | 50 | 172 | 5.0 | 6.0 | 0.00 | 0.00 | 0.00 | 67 | 1011.9 |
| 20260508142610 | 49 | 281 | 4.0 | 4.0 | 0.00 | 0.00 | 0.00 | 69 | 1011.9 |
| 20260508142107 | 50 | 190 | 3.0 | 3.0 | 0.00 | 0.00 | 0.00 | 68 | 1011.7 |
| 20260508141604 | 50 | 201 | 5.0 | 8.0 | 0.00 | 0.00 | 0.00 | 68 | 1011.8 |
| 20260508141056 | 49 | 13 | 2.0 | 4.0 | 0.00 | 0.00 | 0.00 | 68 | 1011.7 |
| 20260508140553 | 48 | 244 | 1.0 | 2.0 | 0.00 | 0.00 | 0.00 | 70 | 1011.6 |
| 20260508140049 | 48 | 209 | 2.0 | 2.0 | 0.00 | 0.00 | 0.00 | 72 | 1011.5 |
| 20260508135545 | 47 | 172 | 2.0 | 3.0 | 0.00 | 0.00 | 0.00 | 71 | 1011.6 |
| 20260508135041 | 47 | 190 | 2.0 | 2.0 | 0.00 | 0.00 | 0.00 | 75 | 1011.6 |
| 20260508134538 | 47 | 262 | 3.0 | 4.0 | 0.00 | 0.00 | 0.00 | 72 | 1011.6 |
| 20260508134035 | 46 | 265 | 3.0 | 4.0 | 0.00 | 0.00 | 0.00 | 73 | 1011.5 |
| 20260508133532 | 47 | 174 | 2.0 | 3.0 | 0.00 | 0.00 | 0.00 | 73 | 1011.5 |
| 20260508133030 | 46 | 220 | 2.0 | 3.0 | 0.00 | 0.00 | 0.00 | 73 | 1011.9 |
| 20260508132528 | 45 | 209 | 2.0 | 3.0 | 0.00 | 0.00 | 0.00 | 73 | 1011.7 |
| 20260508132024 | 45 | 326 | 7.0 | 9.0 | 0.00 | 0.00 | 0.00 | 74 | 1012.0 |
| 20260508131519 | 46 | 242 | 3.0 | 4.0 | 0.00 | 0.00 | 0.00 | 75 | 1012.0 |
| 20260508131015 | 45 | 332 | 6.0 | 8.0 | 0.00 | 0.00 | 0.00 | 71 | 1012.1 |
| 20260508130513 | 44 | 233 | 2.0 | 2.0 | 0.00 | 0.00 | 0.00 | 71 | 1011.9 |
| 20260508130009 | 44 | 195 | 1.0 | 1.0 | 0.00 | 0.00 | 0.00 | 72 | 1011.9 |
| 20260508125505 | 44 | 243 | 2.0 | 3.0 | 0.00 | 0.00 | 0.00 | 75 | 1012.1 |
| 20260508125002 | 44 | 261 | 2.0 | 3.0 | 0.00 | 0.00 | 0.00 | 74 | 1011.9 |
| 20260508124500 | 44 | 258 | 1.0 | 2.0 | 0.00 | 0.00 | 0.00 | 75 | 1011.8 |
| 20260508123957 | 44 | 243 | 2.0 | 2.0 | 0.00 | 0.00 | 0.00 | 77 | 1011.8 |
| 20260508123456 | 43 | 229 | 3.0 | 3.0 | 0.00 | 0.00 | 0.00 | 78 | 1011.8 |
| 20260508122952 | 43 | 239 | 2.0 | 4.0 | 0.00 | 0.00 | 0.00 | 75 | 1011.9 |
| 20260508122449 | 43 | 220 | 2.0 | 3.0 | 0.00 | 0.00 | 0.00 | 78 | 1011.7 |
| 20260508121946 | 42 | 298 | 2.0 | 3.0 | 0.00 | 0.00 | 0.00 | 76 | 1011.8 |
| 20260508121444 | 42 | 221 | 1.0 | 2.0 | 0.00 | 0.00 | 0.00 | 77 | 1011.7 |
| 20260508120942 | 42 | 259 | 2.0 | 2.0 | 0.00 | 0.00 | 0.00 | 81 | 1011.9 |
| 20260508120439 | 41 | 197 | 2.0 | 2.0 | 0.00 | 0.00 | 0.00 | 79 | 1011.8 |
| 20260508115937 | 41 | 182 | 2.0 | 2.0 | 0.00 | 0.00 | 0.00 | 79 | 1011.4 |
| 20260508115435 | 40 | 231 | 2.0 | 2.0 | 0.00 | 0.00 | 0.00 | 81 | 1011.6 |
| 20260508114931 | 40 | 216 | 0.0 | 1.0 | 0.00 | 0.00 | 0.00 | 82 | 1011.2 |
| 20260508114428 | 39 | 213 | 1.0 | 2.0 | 0.00 | 0.00 | 0.00 | 83 | 1011.6 |
| 20260508113924 | 39 | 214 | 0.0 | 1.0 | 0.00 | 0.00 | 0.00 | 84 | 1011.6 |
| 20260508113422 | 39 | 225 | 0.0 | 1.0 | 0.00 | 0.00 | 0.00 | 86 | 1011.5 |
| 20260508112919 | 39 | 204 | 1.0 | 1.0 | 0.00 | 0.00 | 0.00 | 86 | 1011.6 |
| 20260508112416 | 38 | 229 | 1.0 | 1.0 | 0.00 | 0.00 | 0.00 | 87 | 1011.4 |
| 20260508111913 | 37 | 227 | 0.0 | 0.0 | 0.00 | 0.00 | 0.00 | 89 | 1011.4 |
| 20260508111410 | 37 | 211 | 0.0 | 0.0 | 0.00 | 0.00 | 0.00 | 91 | 1011.4 |
| 20260508110907 | 37 | 214 | 0.0 | 0.0 | 0.00 | 0.00 | 0.00 | 91 | 1011.3 |
| 20260508110404 | 37 | 164 | 0.0 | 1.0 | 0.00 | 0.00 | 0.00 | 91 | 1011.4 |
| 20260508105904 | 37 | 224 | 0.0 | 0.0 | 0.00 | 0.00 | 0.00 | 91 | 1011.4 |
| 20260508105400 | 37 | 224 | 1.0 | 1.0 | 0.00 | 0.00 | 0.00 | 90 | 1011.6 |
| 20260508104858 | 37 | 281 | 1.0 | 1.0 | 0.00 | 0.00 | 0.00 | 88 | 1011.4 |
| 20260508104355 | 37 | 246 | 1.0 | 1.0 | 0.00 | 0.00 | 0.00 | 86 | 1011.7 |
| 20260508103852 | 37 | 266 | 1.0 | 2.0 | 0.00 | 0.00 | 0.00 | 86 | 1011.7 |
| 20260508103349 | 37 | 222 | 1.0 | 1.0 | 0.00 | 0.00 | 0.00 | 84 | 1011.6 |
| 20260508102846 | 38 | 221 | 1.0 | 1.0 | 0.00 | 0.00 | 0.00 | 84 | 1011.8 |
| 20260508102344 | 38 | 285 | 1.0 | 1.0 | 0.00 | 0.00 | 0.00 | 83 | 1011.7 |
| 20260508101841 | 38 | 205 | 0.0 | 1.0 | 0.00 | 0.00 | 0.00 | 81 | 1011.7 |